Montreal Mirabel, Ontario

1:02 PM EDT on April 25, 2017 (GMT -0400)
Montreal International (Mirabel)

Weather History for CYMX - October, 2012

Change the Weather History Date:

Sunday, October 14, 2012

  Actual Average Record
Temperature  
Mean Temperature 40 °F -  
Max Temperature 42 °F 53 °F 73 °F (2014)
Min Temperature 37 °F 36 °F 28 °F (2016)
Degree Days  
Heating Degree Days 26    
Moisture  
Dew Point 39 °F    
Average Humidity 97    
Maximum Humidity 100    
Minimum Humidity 87    
Precipitation  
Precipitation 0.00 in - - ()
Sea Level Pressure  
Sea Level Pressure 29.97 in    
Wind  
Wind Speed 6 mph ()    
Max Wind Speed 9 mph    
Max Gust Speed -    
Visibility 4.5 miles    
Events Rain    
Averages and records for this station are not official NWS values.
T = Trace of Precipitation, MM = Missing Value Source: Averaged Metar Reports

Daily Weather History Graph

Daily Weather History Graph

Search for Another Location

Airport or City:

Trip Planner

Search our weather history database for the weather conditions in past years. The results will help you decide how hot, cold, wet, or windy it might be!

Date:

Astronomy

Oct. 14, 2012 Rise Set
Actual Time 7:11 AM EDT 6:11 PM EDT
Civil Twilight 6:41 AM EDT 6:41 PM EDT
Nautical Twilight 6:07 AM EDT 7:15 PM EDT
Astronomical Twilight 5:33 AM EDT 7:49 PM EDT
Moon 6:06 AM EDT (10/14) 5:28 PM EDT (10/14)
Length of Visible Light 11h 59m
Length of Day
10h 59m
Waning Crescent, 1% of the Moon is Illuminated
Oct 14
Waning Crescent
Oct 15
New
Oct 21
First Quarter
Oct 29
Full
Nov 6
Last Quarter

Hourly Weather History & Observations

Time (EDT) Temp. Windchill Dew Point Humidity Pressure Visibility Wind Dir Wind Speed Gust Speed Precip Events Conditions
12:00 AM 39.2 °F 33.6 °F 35.6 °F 87% 30.19 in 10.0 mi SW 8.1 mph - N/A Rain Light Rain
1:00 AM 39.2 °F 35.9 °F 37.4 °F 93% 30.16 in 15.0 mi South 4.6 mph - N/A Rain Light Rain
2:00 AM 39.2 °F 37.0 °F 37.4 °F 93% 30.12 in 15.0 mi SE 3.5 mph - N/A Rain Light Rain
3:00 AM 39.2 °F 33.6 °F 37.4 °F 93% 30.08 in 15.0 mi ESE 8.1 mph - N/A Rain Light Rain
4:00 AM 39.2 °F 35.0 °F 37.4 °F 93% 30.04 in 15.0 mi East 5.8 mph - N/A Rain Light Rain
5:00 AM 39.2 °F 34.2 °F 37.4 °F 93% 30.02 in 12.0 mi East 6.9 mph - N/A Rain Light Rain
6:00 AM 39.2 °F 35.0 °F 39.2 °F 100% 30.02 in 6.0 mi NE 5.8 mph - N/A Rain Light Rain
7:00 AM 39.2 °F 34.2 °F 37.4 °F 93% 30.01 in 1.0 mi NE 6.9 mph - N/A Rain Light Rain
8:00 AM 39.2 °F 33.6 °F 37.4 °F 93% 30.02 in 1.0 mi NE 8.1 mph - N/A Rain Light Rain
8:46 AM 37.4 °F 31.4 °F 37.4 °F 100% 30.01 in 0.8 mi NE 8.1 mph - N/A   Light Drizzle
9:00 AM 37.4 °F 32.1 °F 37.4 °F 100% 30.01 in 0.8 mi NE 6.9 mph - N/A   Light Drizzle
10:00 AM 39.2 °F 33.6 °F 37.4 °F 93% 30.02 in 1.5 mi NE 8.1 mph - N/A   Light Drizzle
11:00 AM 37.4 °F 32.8 °F 37.4 °F 100% 30.02 in 1.5 mi NE 5.8 mph - N/A   Light Drizzle
12:00 PM 39.2 °F 34.2 °F 37.4 °F 93% 30.01 in 1.2 mi NE 6.9 mph - N/A   Light Drizzle
12:20 PM 39.2 °F 34.2 °F 39.2 °F 100% 30.01 in 0.8 mi NE 6.9 mph - N/A   Light Drizzle
1:00 PM 39.2 °F 33.6 °F 39.2 °F 100% 29.99 in 0.8 mi NE 8.1 mph - N/A   Light Drizzle
2:00 PM 39.2 °F 35.0 °F 39.2 °F 100% 29.96 in 0.8 mi NNE 5.8 mph - N/A   Light Drizzle
2:38 PM 39.2 °F 33.0 °F 39.2 °F 100% 29.95 in 1.5 mi NE 9.2 mph - N/A Rain Light Rain
3:00 PM 39.2 °F 33.6 °F 39.2 °F 100% 29.93 in 1.5 mi ENE 8.1 mph - N/A Rain Light Rain
3:32 PM 39.2 °F 35.0 °F 39.2 °F 100% 29.92 in 3.0 mi NE 5.8 mph - N/A Rain Light Rain
4:00 PM 39.2 °F 35.0 °F 39.2 °F 100% 29.92 in 4.0 mi NE 5.8 mph - N/A Rain Light Rain
5:00 PM 41.0 °F 36.4 °F 39.2 °F 93% 29.90 in 3.0 mi NNE 6.9 mph - N/A Rain Light Rain
6:00 PM 41.0 °F 35.2 °F 41.0 °F 100% 29.88 in 4.0 mi NE 9.2 mph - N/A Rain Light Rain
7:00 PM 41.0 °F 36.4 °F 41.0 °F 100% 29.87 in 3.0 mi NE 6.9 mph - N/A Rain Light Rain
8:00 PM 42.8 °F 39.3 °F 41.0 °F 93% 29.84 in 3.0 mi NE 5.8 mph - N/A Rain Light Rain
9:00 PM 42.8 °F 38.0 °F 41.0 °F 93% 29.79 in 2.0 mi NE 8.1 mph - N/A Rain Light Rain
10:00 PM 42.8 °F 39.3 °F 42.8 °F 100% 29.77 in 1.5 mi NE 5.8 mph - N/A Rain Light Rain
11:00 PM 42.8 °F 39.3 °F 42.8 °F 100% 29.75 in 1.0 mi NNE 5.8 mph - N/A Rain Light Rain